Weather History for Ashland, WI

Change the Weather History Date:

Saturday, June 29, 2013

  Actual Average Record
Temperature  
Mean Temperature 62 °F -  
Max Temperature 70 °F 76 °F 94 °F (1963)
Min Temperature 52 °F 52 °F 35 °F (2007)
Degree Days  
Heating Degree Days 4    
Growing Degree Days 12 (Base 50)    
Moisture  
Dew Point 54 °F    
Average Humidity 78    
Maximum Humidity 100    
Minimum Humidity 49    
Precipitation  
Precipitation 0.00 in - - ()
Sea Level Pressure  
Sea Level Pressure 29.89 in    
Wind  
Wind Speed 4 mph (NNE)    
Max Wind Speed 16 mph    
Max Gust Speed 22 mph    
Visibility 10 miles    
Events      
Averages and records for this station are not official NWS values.
T = Trace of Precipitation, MM = Missing Value Source: NWS Daily Summary

Daily Weather History Graph

Daily Weather History Graph

Search for Another Location

Airport:

Trip Planner

Search our weather history database for the weather conditions in past years. The results will help you decide how hot, cold, wet, or windy it might be!

Date:

Astronomy

Jun. 29, 2013 Rise Set
Actual Time 5:13 AM CDT 9:00 PM CDT
Civil Twilight 4:34 AM CDT 9:39 PM CDT
Nautical Twilight 3:41 AM CDT 10:32 PM CDT
Astronomical Twilight 2:25 AM CDT 11:47 PM CDT
Moon 12:04 AM CDT (6/29) 12:53 PM CDT (6/29)
Length of Visible Light 17h 05m
Length of Day
15h 47m
Waning Gibbous, 55% of the Moon is Illuminated
Jun 29
Waning Gibbous
Jun 29
Last Quarter
Jul 8
New
Jul 15
First Quarter
Jul 22
Full

Hourly Weather History & Observations

Time (CDT) Temp. Dew Point Humidity Pressure Visibility Wind Dir Wind Speed Gust Speed Precip Events Conditions
12:53 AM 59.0 °F 55.9 °F 90% 29.80 in 10.0 mi Calm Calm - N/A   Overcast
1:53 AM 59.0 °F 55.9 °F 90% 29.80 in 10.0 mi Calm Calm - N/A   Overcast
2:50 AM 57.2 °F 55.4 °F 94% 29.80 in 10.0 mi Calm Calm - N/A   Overcast
2:53 AM 57.9 °F 55.9 °F 93% 29.80 in 10.0 mi Calm Calm - N/A   Overcast
3:02 AM 57.2 °F 55.4 °F 94% 29.80 in 10.0 mi Calm Calm - N/A   Overcast
3:46 AM 57.2 °F 57.2 °F 100% 29.80 in 10.0 mi Calm Calm - N/A   Overcast
3:53 AM 57.9 °F 55.9 °F 93% 29.81 in 10.0 mi Calm Calm - N/A   Overcast
4:00 AM 57.2 °F 55.4 °F 94% 29.81 in 10.0 mi Calm Calm - N/A   Overcast
4:35 AM 57.2 °F 55.4 °F 94% 29.81 in 10.0 mi Calm Calm - N/A   Overcast
4:53 AM 57.9 °F 55.9 °F 93% 29.82 in 10.0 mi North 3.5 mph - N/A   Mostly Cloudy
5:53 AM 59.0 °F 55.9 °F 90% 29.83 in 10.0 mi NNE 6.9 mph - N/A   Mostly Cloudy
6:53 AM 60.1 °F 55.9 °F 86% 29.84 in 10.0 mi NNE 4.6 mph - N/A   Mostly Cloudy
7:53 AM 62.1 °F 55.9 °F 80% 29.86 in 10.0 mi NE 6.9 mph - N/A   Scattered Clouds
8:53 AM 64.0 °F 55.9 °F 75% 29.88 in 10.0 mi NNE 6.9 mph - N/A   Scattered Clouds
9:53 AM 64.0 °F 55.9 °F 75% 29.89 in 10.0 mi NE 12.7 mph 19.6 mph N/A   Partly Cloudy
10:53 AM 64.9 °F 53.1 °F 65% 29.91 in 10.0 mi NE 16.1 mph 21.9 mph N/A   Clear
11:53 AM 64.9 °F 52.0 °F 63% 29.93 in 10.0 mi ENE 12.7 mph - N/A   Scattered Clouds
12:53 PM 66.9 °F 52.0 °F 59% 29.94 in 10.0 mi NNE 12.7 mph - N/A   Clear
1:53 PM 68.0 °F 52.0 °F 56% 29.95 in 10.0 mi ENE 12.7 mph - N/A   Clear
2:53 PM 70.0 °F 53.1 °F 55% 29.95 in 10.0 mi NNE 10.4 mph - N/A   Clear
3:53 PM 66.9 °F 48.9 °F 52% 29.96 in 10.0 mi NE 13.8 mph 20.7 mph N/A   Clear
4:53 PM 68.0 °F 48.0 °F 49% 29.96 in 10.0 mi NE 13.8 mph - N/A   Clear
5:53 PM 66.9 °F 48.0 °F 51% 29.97 in 10.0 mi NE 10.4 mph - N/A   Clear
6:53 PM 64.9 °F 48.9 °F 56% 29.97 in 10.0 mi NNE 6.9 mph - N/A   Clear
7:53 PM 64.0 °F 53.1 °F 67% 29.98 in 10.0 mi Calm Calm - N/A   Clear
8:53 PM 55.9 °F 53.1 °F 90% 29.98 in 10.0 mi Calm Calm - N/A   Partly Cloudy
9:53 PM 55.0 °F 52.0 °F 89% 30.00 in 10.0 mi WSW 3.5 mph - N/A   Scattered Clouds
10:53 PM 53.1 °F 51.1 °F 93% 30.00 in 10.0 mi Calm Calm - N/A   Partly Cloudy
11:53 PM 52.0 °F 48.9 °F 89% 30.01 in 10.0 mi WSW 4.6 mph - N/A   Clear